Location: Sommers-Bausch Observatory
(40.0037°N, 105.2635°W)
Time: 15:41:49
(UTC-07:00)

Amateur Radio Satellites - All Passes

Search period start: 28 November 2014 15:11
Search period end: 29 November 2014 15:11
Location: Sommers-Bausch Observatory, 40.0037°N, 105.2635°W

Satellite Date Start Highest point End Downlink Frequencies (MHz)
Time Altitude Azimuth
M-CUBED/EXP-1 PRIME 28 Nov 15:16:16 15:17:58 12° 305° (NW) 15:19:39 437.505
MaSat-1 28 Nov 15:23:27 15:24:22 11° 303° (WNW) 15:25:15 437.345
YUBILEINY 28 Nov 15:23:44 15:29:15 19° 282° (WNW) 15:34:46 435.215
STARS 28 Nov 15:26:48 15:30:59 44° 288° (WNW) 15:35:09 437.465
VERMONT LUNAR 28 Nov 15:47:44 15:51:22 81° 2° (N) 15:55:00 437.305
PHONESAT 2.4 28 Nov 15:48:19 15:52:03 81° 359° (N) 15:55:46 2401.200-2431.200
O/OREOS (USA 219) 28 Nov 16:02:10 16:06:00 28° 257° (WSW) 16:09:49 437.305
MOZHAYETS 4 28 Nov 16:02:35 16:05:48 18° 92° (E) 16:08:59
CUTE-I 28 Nov 16:14:10 16:17:40 18° 62° (ENE) 16:21:10 437.470
JAS-2 28 Nov 16:14:18 16:21:57 73° 73° (ENE) 16:29:47 435.910
KKS-1 28 Nov 16:16:26 16:17:14 10° 299° (WNW) 16:18:02 437.445
AO-7 28 Nov 17:02:19 17:08:22 22° 267° (W) 17:14:28 29.400- 29.500
Cubesat XI-IV 28 Nov 17:11:23 17:16:39 59° 72° (ENE) 17:21:55 437.490
GONETS M04 28 Nov 17:20:29 17:26:22 19° 63° (ENE) 17:32:12
RS-15 28 Nov 17:24:18 17:34:27 42° 317° (NW) 17:44:43 29.354- 29.394
VERMONT LUNAR 28 Nov 17:26:15 17:29:48 54° 199° (SSW) 17:33:20 437.305
PHONESAT 2.4 28 Nov 17:27:09 17:30:51 68° 196° (SSW) 17:34:32 2401.200-2431.200
PCSat 28 Nov 17:33:43 17:36:45 15° 104° (ESE) 17:39:48 145.827
MOZHAYETS 4 28 Nov 17:38:48 17:43:12 43° 288° (WNW) 17:47:35
PRISM 28 Nov 17:46:44 17:50:43 39° 99° (E) 17:54:39 437.425
CUTE-I 28 Nov 17:51:56 17:57:13 61° 259° (WSW) 18:02:32 437.470
CUBESAT XI-V 28 Nov 17:52:17 17:55:33 19° 93° (E) 17:58:46 437.345
STRAND 1 28 Nov 17:55:43 17:59:23 20° 93° (E) 18:03:01 437.568
JAS-2 28 Nov 18:01:41 18:07:31 23° 270° (W) 18:13:29 435.910
BEESAT 3 28 Nov 18:07:45 18:09:53 14° 109° (ESE) 18:12:02 437.485
HO-68 28 Nov 18:14:24 18:18:19 16° 53° (NE) 18:22:14 435.675
BEESAT 2 28 Nov 18:24:45 18:27:43 20° 111° (ESE) 18:30:44 435.950
Cubesat XI-IV 28 Nov 18:53:43 18:57:06 17° 268° (W) 19:00:30 437.490
AIST 1 28 Nov 19:00:05 19:04:24 58° 94° (E) 19:08:45
VERMONT LUNAR 28 Nov 19:05:44 19:07:47 14° 214° (SW) 19:09:49 437.305
PHONESAT 2.4 28 Nov 19:06:28 19:09:16 20° 211° (SSW) 19:12:04 2401.200-2431.200
COMPASS 1 28 Nov 19:08:06 19:09:29 12° 63° (ENE) 19:10:53 437.405
CANX-2 28 Nov 19:10:38 19:13:34 19° 67° (ENE) 19:16:31 2200.000
AIST 2 28 Nov 19:11:55 19:15:37 31° 114° (ESE) 19:19:24 435.215
PCSat 28 Nov 19:14:08 19:19:31 69° 300° (WNW) 19:24:57 145.827
GONETS M04 28 Nov 19:15:33 19:24:26 89° 264° (W) 19:33:12
PRISM 28 Nov 19:23:08 19:25:57 18° 295° (WNW) 19:28:45 437.425
GOMX 1 28 Nov 19:26:32 19:29:52 20° 68° (ENE) 19:33:04 467.674
CUBESAT XI-V 28 Nov 19:28:47 19:33:10 41° 288° (WNW) 19:37:30 437.345
STRAND 1 28 Nov 19:33:55 19:38:48 47° 289° (WNW) 19:43:38 437.568
BEESAT 3 28 Nov 19:43:39 19:47:38 51° 305° (NW) 19:51:43 437.485
CUTE 1.7 + AOD 2 28 Nov 19:43:42 19:47:37 39° 72° (ENE) 19:51:34 437.475
RS-15 28 Nov 19:43:43 19:50:59 19° 350° (N) 19:58:23 29.354- 29.394
HO-68 28 Nov 19:57:43 20:04:54 80° 72° (ENE) 20:12:07 435.675
BEESAT 2 28 Nov 20:01:53 20:05:44 38° 308° (NW) 20:09:40 435.950
DOVE 4 28 Nov 20:07:11 20:11:22 38° 72° (ENE) 20:15:22 437.250
BRITE-PL 28 Nov 20:09:03 20:13:59 78° 76° (ENE) 20:18:33 437.365/2234.400
SEEDS 28 Nov 20:12:28 20:16:38 73° 76° (ENE) 20:20:51 437.485
DELFI C3 28 Nov 20:13:35 20:16:47 23° 68° (ENE) 20:20:00 145.870
CINEMA 3 28 Nov 20:20:33 20:24:22 31° 71° (ENE) 20:28:06 145.822/145.860
UKube-1 28 Nov 20:22:17 20:26:09 32° 70° (ENE) 20:30:01 .
AAUSAT CUBESAT 2 28 Nov 20:23:01 20:27:08 72° 76° (ENE) 20:31:19 437.432
Oscar 11 28 Nov 20:30:57 20:35:02 44° 72° (ENE) 20:39:08 145.826/435.025
FUNcube-1 28 Nov 20:31:26 20:34:21 19° 67° (ENE) 20:37:15 145.935
AISAT 28 Nov 20:37:51 20:40:36 16° 64° (ENE) 20:43:22 437.250
COMPASS 1 28 Nov 20:40:34 20:44:41 62° 259° (W) 20:48:51 437.405
AIST 1 28 Nov 20:40:42 20:42:28 12° 291° (WNW) 20:44:14
CANX-2 28 Nov 20:45:22 20:49:14 36° 263° (W) 20:53:10 2200.000
AIST 2 28 Nov 20:50:38 20:54:15 27° 311° (NW) 20:57:55 435.215
HUMSAT D 28 Nov 20:53:00 20:55:58 20° 67° (ENE) 20:58:56 437.325/437.525
DX 1 28 Nov 21:00:25 21:04:49 89° 74° (ENE) 21:09:13 434.975-435.025
PCSat 28 Nov 21:01:38 21:03:58 13° 320° (NW) 21:06:17 145.827
GOMX 1 28 Nov 21:03:24 21:07:47 38° 262° (W) 21:11:56 467.674
UWE-3 28 Nov 21:04:09 21:08:14 51° 74° (ENE) 21:12:17 435.000/436.395/437.385
CUBEBUG 2 28 Nov 21:10:24 21:14:37 72° 76° (ENE) 21:18:47 437.445
GONETS M04 28 Nov 21:14:53 21:19:53 17° 283° (WNW) 21:24:52
CUTE 1.7 + AOD 2 28 Nov 21:21:01 21:23:42 17° 268° (W) 21:26:26 437.475
ZACube-1 28 Nov 21:32:01 21:36:13 88° 257° (WSW) 21:40:24 437.345
ANTELSAT 28 Nov 21:39:20 21:42:04 16° 92° (E) 21:44:48 437.575/2403.000
VELOX 1 28 Nov 21:44:03 21:48:31 81° 76° (ENE) 21:53:00 145.980
DOVE 4 28 Nov 21:46:08 21:49:15 18° 266° (W) 21:52:16 437.250
NANOSAT C BR1 28 Nov 21:47:15 21:48:28 11° 91° (E) 21:49:41 145.865
DELFI C3 28 Nov 21:48:29 21:51:57 27° 264° (W) 21:55:28 145.870
HO-68 28 Nov 21:48:42 21:53:18 18° 269° (W) 21:57:56 435.675
ESTCUBE 1 28 Nov 21:54:17 21:58:29 38° 71° (ENE) 22:02:43 437.505/2401.250
50 SAT 28 Nov 21:54:33 21:58:34 83° 76° (ENE) 22:02:36 437.505
QB50P1 28 Nov 21:56:33 21:58:57 15° 92° (E) 22:01:20 145.935-145.965
CINEMA 3 28 Nov 21:58:21 22:01:37 21° 265° (W) 22:04:50 145.822/145.860
UKube-1 28 Nov 21:58:59 22:02:20 22° 265° (W) 22:05:43 .
CUSAT 1 28 Nov 21:59:17 22:02:22 15° 73° (ENE) 22:05:54 437.405
RS-15 28 Nov 22:00:09 22:08:56 26° 27° (NNE) 22:17:56 29.354- 29.394
FUNcube-1 28 Nov 22:06:38 22:10:28 34° 262° (W) 22:14:17 145.935
Oscar 11 28 Nov 22:08:52 22:11:25 15° 268° (W) 22:13:59 145.826/435.025
ISS 28 Nov 22:11:15 22:14:32 80° 141° (SE) 22:17:49 145.825
AISAT 28 Nov 22:12:31 22:16:51 48° 260° (W) 22:21:11 437.250
CUBEBUG 1 28 Nov 22:13:20 22:17:42 59° 74° (ENE) 22:22:04 437.445
POPSAT HIP 1 28 Nov 22:20:47 22:24:25 28° 96° (E) 22:28:03 437.405
HUMSAT D 28 Nov 22:27:52 22:31:34 32° 263° (W) 22:35:17 437.325/437.525
TIGRISAT 28 Nov 22:30:01 22:34:24 54° 100° (E) 22:38:52 435.000
DANDE 28 Nov 22:38:08 22:42:25 28° 77° (ENE) 22:47:50 436.750
UWE-3 28 Nov 22:43:23 22:45:05 12° 269° (W) 22:46:46 435.000/436.395/437.385
UNISAT 6 28 Nov 22:45:26 22:49:56 82° 103° (ESE) 22:54:32 437.425
POLYITAN 1 28 Nov 22:55:54 23:00:09 74° 102° (ESE) 23:04:22 437.675
M-CUBED/EXP-1 PRIME 28 Nov 22:55:57 22:57:48 13° 55° (NE) 22:59:42 437.505
QB50P2 28 Nov 22:56:37 23:00:51 75° 102° (ESE) 23:05:05 145.880/145.840
DUCHIFAT 1 28 Nov 23:00:30 23:04:44 82° 103° (ESE) 23:08:56 145.980
TISAT 1 28 Nov 23:04:30 23:08:40 53° 74° (ENE) 23:12:49 437.305
ANTELSAT 28 Nov 23:14:46 23:19:05 48° 287° (WNW) 23:23:29 437.575/2403.000
NANOSAT C BR1 28 Nov 23:20:34 23:24:43 58° 286° (WNW) 23:28:51 145.865
SPROUT 28 Nov 23:24:20 23:28:39 79° 76° (ENE) 23:32:58 437.525
BUGSAT 1 28 Nov 23:24:37 23:28:38 62° 285° (WNW) 23:32:37 437.445
MaSat-1 28 Nov 23:25:27 23:27:34 30° 62° (ENE) 23:29:45 437.345
QB50P1 28 Nov 23:31:03 23:35:04 44° 288° (WNW) 23:39:04 145.935-145.965
ESTCUBE 1 28 Nov 23:32:11 23:35:29 20° 266° (W) 23:38:48 437.505/2401.250
CUSAT 1 28 Nov 23:40:27 23:45:31 70° 262° (W) 23:52:18 437.405
ITUPSAT 1 28 Nov 23:45:13 23:49:00 24° 66° (ENE) 23:52:48 437.325
ISS 28 Nov 23:49:05 23:51:30 19° 339° (NNW) 23:53:56 145.825
CUBEBUG 1 28 Nov 23:52:38 23:54:26 12° 269° (W) 23:56:13 437.445
SWISSCUBE 28 Nov 23:54:20 23:58:32 31° 69° (ENE) 00:02:47 437.505
POPSAT HIP 1 28 Nov 23:56:50 00:00:13 24° 292° (WNW) 00:03:34 437.405
TIGRISAT 29 Nov 00:08:15 00:10:44 15° 295° (WNW) 00:13:15 435.000
RS-15 29 Nov 00:12:33 00:23:47 70° 55° (NE) 00:35:29 29.354- 29.394
AUBIESAT-1 29 Nov 00:20:21 00:24:30 86° 71° (ENE) 00:29:03 437.475
DANDE 29 Nov 00:21:15 00:25:50 36° 264° (W) 00:31:45 436.750
BEESAT 29 Nov 00:24:06 00:28:47 58° 73° (ENE) 00:33:31 436.000
UNISAT 6 29 Nov 00:25:41 00:26:06 10° 298° (WNW) 00:26:30 437.425
M-CUBED/EXP-1 PRIME 29 Nov 00:28:02 00:32:08 71° 254° (WSW) 00:36:40 437.505
YUBILEINY 29 Nov 00:31:55 00:37:29 19° 78° (ENE) 00:43:02 435.215
POLYITAN 1 29 Nov 00:35:26 00:35:29 10° 298° (WNW) 00:35:32 437.675
TISAT 1 29 Nov 00:43:01 00:44:48 12° 269° (W) 00:46:36 437.305
STARS 29 Nov 00:49:08 00:51:29 14° 64° (ENE) 00:53:50 437.465
ITUPSAT 1 29 Nov 01:22:14 01:26:40 37° 262° (W) 01:31:08 437.325
Oscar 19 29 Nov 01:22:53 01:27:59 58° 101° (E) 01:33:05 437.125/150
ISS 29 Nov 01:28:12 01:29:10 11° 360° (N) 01:30:09 145.825
SWISSCUBE 29 Nov 01:32:20 01:36:22 27° 264° (W) 01:40:27 437.505
KKS-1 29 Nov 01:34:23 01:38:47 65° 74° (ENE) 01:43:12 437.445
Gurwin Techsat 1B 29 Nov 01:36:53 01:40:18 17° 92° (E) 01:43:42 435.225
SO-50 29 Nov 01:54:24 01:58:00 24° 112° (ESE) 02:01:42 436.795
BEESAT 29 Nov 02:04:26 02:06:59 14° 269° (W) 02:09:33 436.000
PCSat 29 Nov 02:20:59 02:23:53 14° 41° (NE) 02:26:47 145.827
STARS 29 Nov 02:23:13 02:27:31 54° 260° (W) 02:31:50 437.465
ITAMSAT 1 29 Nov 02:23:24 02:28:36 82° 103° (ESE) 02:33:46 435.822/435.867
YUBILEINY 29 Nov 02:24:17 02:33:06 84° 277° (W) 02:41:56 435.215
RS-15 29 Nov 02:25:49 02:35:20 33° 255° (WSW) 02:45:14 29.354- 29.394
BEESAT 3 29 Nov 02:28:20 02:29:22 11° 39° (NE) 02:30:24 437.485
HORYU 2 29 Nov 02:45:30 02:49:32 32° 97° (E) 02:53:33 437.375
BEESAT 2 29 Nov 02:45:38 02:47:52 14° 42° (NE) 02:50:06 435.950
Oscar 19 29 Nov 03:03:29 03:06:50 18° 297° (WNW) 03:10:13 437.125/150
ISS 29 Nov 03:04:29 03:06:51 18° 20° (NNE) 03:09:13 145.825
MOZHAYETS 4 29 Nov 03:04:43 03:07:38 17° 65° (ENE) 03:10:34
AO-7 29 Nov 03:09:53 03:16:33 26° 94° (E) 03:23:09 29.400- 29.500
KKS-1 29 Nov 03:14:36 03:15:51 11° 270° (W) 03:17:05 437.445
Gurwin Techsat 1B 29 Nov 03:15:25 03:20:37 57° 288° (WNW) 03:25:47 435.225
SO-50 29 Nov 03:34:07 03:38:19 37° 309° (NW) 03:42:40 436.795
AIST 2 29 Nov 03:34:41 03:37:56 20° 46° (NE) 03:41:09 435.215
PCSat 29 Nov 04:02:43 04:08:10 81° 61° (ENE) 04:13:35 145.827
BEESAT 3 29 Nov 04:04:06 04:08:19 78° 58° (ENE) 04:12:27 437.485
ITAMSAT 1 29 Nov 04:05:08 04:07:22 13° 300° (WNW) 04:09:36 435.822/435.867
HORYU 2 29 Nov 04:22:27 04:26:02 24° 293° (WNW) 04:29:37 437.375
BEESAT 2 29 Nov 04:22:28 04:26:40 74° 240° (WSW) 04:30:49 435.950
YUBILEINY 29 Nov 04:25:59 04:31:17 17° 298° (WNW) 04:36:37 435.215
O/OREOS (USA 219) 29 Nov 04:34:22 04:38:23 33° 105° (ESE) 04:42:24 437.305
PRISM 29 Nov 04:37:18 04:40:53 28° 69° (ENE) 04:44:31 437.425
MOZHAYETS 4 29 Nov 04:40:00 04:44:27 49° 261° (W) 04:48:57
ISS 29 Nov 04:40:34 04:43:52 88° 219° (SW) 04:47:09 145.825
CUBESAT XI-V 29 Nov 04:55:37 04:58:50 19° 65° (ENE) 05:02:03 437.345
AO-7 29 Nov 05:01:35 05:09:53 68° 292° (WNW) 05:18:08 29.400- 29.500
AIST 1 29 Nov 05:09:43 05:12:01 14° 70° (ENE) 05:14:19
STRAND 1 29 Nov 05:10:51 05:15:10 28° 67° (ENE) 05:19:29 437.568
JAS-2 29 Nov 05:11:04 05:17:58 68° 101° (E) 05:23:58 435.910
AIST 2 29 Nov 05:12:41 05:16:47 45° 244° (WSW) 05:20:49 435.215
Cubesat XI-IV 29 Nov 05:30:04 05:34:22 25° 95° (E) 05:38:38 437.490
PCSat 29 Nov 05:48:34 05:50:49 13° 258° (WSW) 05:53:03 145.827
CUTE-I 29 Nov 06:09:46 06:15:01 57° 101° (E) 06:20:13 437.470
PRISM 29 Nov 06:13:01 06:16:24 23° 265° (W) 06:19:50 437.425
O/OREOS (USA 219) 29 Nov 06:14:15 06:17:49 23° 301° (WNW) 06:21:24 437.305
GONETS M04 29 Nov 06:21:56 06:28:05 22° 79° (E) 06:34:15
CUBESAT XI-V 29 Nov 06:31:22 06:35:54 46° 261° (W) 06:40:28 437.345
AIST 1 29 Nov 06:45:47 06:50:00 47° 267° (W) 06:54:08
STRAND 1 29 Nov 06:49:32 06:54:12 35° 263° (W) 06:58:53 437.568
AO-7 29 Nov 06:56:45 07:01:08 16° 312° (NW) 07:05:32 29.400- 29.500
JAS-2 29 Nov 06:57:17 07:02:12 21° 302° (WNW) 07:06:44 435.910
Cubesat XI-IV 29 Nov 07:09:37 07:14:34 40° 291° (WNW) 07:19:29 437.490
HO-68 29 Nov 07:28:45 07:32:19 14° 89° (E) 07:35:51 435.675
CUTE-I 29 Nov 07:51:01 07:54:36 19° 298° (WNW) 07:58:11 437.470
SEEDS 29 Nov 07:59:44 08:01:48 13° 91° (E) 08:03:52 437.485
AAUSAT CUBESAT 2 29 Nov 08:09:22 08:11:09 12° 91° (E) 08:12:57 437.432
GONETS M04 29 Nov 08:15:03 08:23:51 77° 279° (W) 08:32:45
BRITE-PL 29 Nov 08:15:06 08:18:21 22° 95° (E) 08:21:40 437.365/2234.400
COMPASS 1 29 Nov 08:25:56 08:29:17 22° 94° (E) 08:32:37 437.405
CANX-2 29 Nov 08:31:23 08:35:25 38° 98° (E) 08:39:27 2200.000
ANTELSAT 29 Nov 08:39:31 08:41:25 13° 63° (ENE) 08:43:19 437.575/2403.000
QB50P1 29 Nov 08:50:36 08:52:01 12° 63° (ENE) 08:53:26 145.935-145.965
DX 1 29 Nov 08:51:01 08:53:40 16° 93° (E) 08:56:18 434.975-435.025
UWE-3 29 Nov 08:57:17 08:58:22 11° 91° (E) 08:59:27 435.000/436.395/437.385
CUBEBUG 2 29 Nov 09:03:26 09:06:01 16° 93° (E) 09:08:39 437.445
GOMX 1 29 Nov 09:05:18 09:09:27 59° 101° (E) 09:13:45 467.674
CUTE 1.7 + AOD 2 29 Nov 09:05:20 09:09:40 88° 103° (ESE) 09:13:58 437.475
HO-68 29 Nov 09:13:42 09:20:55 87° 106° (ESE) 09:28:05 435.675
POPSAT HIP 1 29 Nov 09:13:57 09:17:07 21° 67° (ENE) 09:20:17 437.405
ZACube-1 29 Nov 09:22:21 09:25:22 18° 94° (E) 09:28:24 437.345
TIGRISAT 29 Nov 09:28:44 09:32:44 42° 72° (ENE) 09:36:46 435.000
DELFI C3 29 Nov 09:29:27 09:33:24 42° 99° (E) 09:37:20 145.870
SEEDS 29 Nov 09:33:45 09:37:54 50° 286° (WNW) 09:42:03 437.485
VELOX 1 29 Nov 09:37:04 09:39:48 16° 93° (E) 09:42:30 145.980
50 SAT 29 Nov 09:38:04 09:39:48 12° 91° (E) 09:41:31 437.505
AAUSAT CUBESAT 2 29 Nov 09:43:00 09:47:08 53° 286° (WNW) 09:51:16 437.432
DOVE 4 29 Nov 09:44:03 09:48:14 67° 285° (WNW) 09:52:35 437.250
UNISAT 6 29 Nov 09:44:16 09:48:29 66° 75° (ENE) 09:52:44 437.425
UKube-1 29 Nov 09:46:25 09:50:45 65° 102° (ESE) 09:55:02 .
POLYITAN 1 29 Nov 09:48:43 09:52:50 51° 73° (ENE) 09:56:57 437.675
QB50P2 29 Nov 09:49:12 09:53:19 51° 73° (ENE) 09:57:27 145.880/145.840
CINEMA 3 29 Nov 09:52:23 09:56:40 89° 104° (ESE) 10:01:06 145.822/145.860
DUCHIFAT 1 29 Nov 09:52:41 09:56:50 55° 74° (ENE) 10:01:00 145.980
BRITE-PL 29 Nov 09:53:21 09:56:54 28° 290° (WNW) 10:00:31 437.365/2234.400
Oscar 11 29 Nov 09:54:52 09:59:14 82° 284° (WNW) 10:03:35 145.826/435.025
FUNcube-1 29 Nov 09:55:29 09:59:34 42° 99° (E) 10:03:42 145.935
COMPASS 1 29 Nov 10:01:18 10:05:01 30° 290° (WNW) 10:08:42 437.405
AISAT 29 Nov 10:04:39 10:08:39 33° 97° (E) 10:12:37 437.250
CUBEBUG 1 29 Nov 10:05:47 10:07:05 11° 90° (E) 10:08:23 437.445
CANX-2 29 Nov 10:08:07 10:11:04 18° 293° (WNW) 10:14:00 2200.000
NANOSAT C BR1 29 Nov 10:12:39 10:16:54 85° 257° (WSW) 10:21:10 145.865
HUMSAT D 29 Nov 10:12:48 10:16:45 39° 98° (E) 10:20:44 437.325/437.525
ANTELSAT 29 Nov 10:13:33 10:17:44 56° 260° (W) 10:21:57 437.575/2403.000
BUGSAT 1 29 Nov 10:13:57 10:18:12 82° 76° (ENE) 10:22:26 437.445
GONETS M04 29 Nov 10:17:37 10:22:19 15° 300° (WNW) 10:27:02
QB50P1 29 Nov 10:23:09 10:27:22 64° 259° (WSW) 10:31:36 145.935-145.965
SO-50 29 Nov 10:25:54 10:29:48 23° 46° (NE) 10:33:42 436.795
DX 1 29 Nov 10:26:00 10:30:07 43° 288° (WNW) 10:34:13 434.975-435.025
UWE-3 29 Nov 10:31:02 10:35:16 62° 285° (WNW) 10:39:36 435.000/436.395/437.385
CUBEBUG 2 29 Nov 10:38:51 10:42:55 44° 287° (WNW) 10:47:05 437.445
GOMX 1 29 Nov 10:45:39 10:47:09 12° 296° (WNW) 10:48:40 467.674
POPSAT HIP 1 29 Nov 10:49:00 10:52:49 32° 263° (W) 10:56:40 437.405
ZACube-1 29 Nov 10:57:55 11:01:50 36° 288° (WNW) 11:05:50 437.345
HO-68 29 Nov 11:03:05 11:07:42 19° 305° (NW) 11:12:17 435.675
DELFI C3 29 Nov 11:05:52 11:08:21 16° 294° (WNW) 11:10:50 145.870
TIGRISAT 29 Nov 11:07:14 11:09:42 15° 268° (W) 11:12:12 435.000
50 SAT 29 Nov 11:11:25 11:15:22 49° 286° (WNW) 11:19:19 437.505
VELOX 1 29 Nov 11:12:24 11:16:36 44° 288° (WNW) 11:20:46 145.980
SPROUT 29 Nov 11:13:32 11:15:53 14° 92° (E) 11:18:12 437.525
ESTCUBE 1 29 Nov 11:24:19 11:28:53 87° 284° (WNW) 11:33:24 437.505/2401.250
UKube-1 29 Nov 11:24:45 11:26:21 12° 298° (WNW) 11:27:56 .
POLYITAN 1 29 Nov 11:27:07 11:29:04 13° 269° (W) 11:31:02 437.675
QB50P2 29 Nov 11:27:37 11:29:32 13° 269° (W) 11:31:27 145.880/145.840
DUCHIFAT 1 29 Nov 11:31:28 11:33:02 12° 269° (W) 11:34:37 145.980
FUNcube-1 29 Nov 11:32:53 11:35:36 17° 294° (WNW) 11:38:21 145.935
CUBEBUG 1 29 Nov 11:39:33 11:43:51 61° 286° (WNW) 11:48:06 437.445
AISAT 29 Nov 11:41:41 11:45:06 22° 293° (WNW) 11:48:29 437.250
HUMSAT D 29 Nov 11:49:32 11:52:16 17° 294° (WNW) 11:55:00 437.325/437.525
VERMONT LUNAR 29 Nov 11:54:46 11:57:18 18° 148° (SSE) 11:59:51 437.305
DANDE 29 Nov 11:55:41 11:57:35 18° 93° (E) 11:59:27 436.750
PHONESAT 2.4 29 Nov 11:59:59 12:02:04 15° 146° (SE) 12:04:10 2401.200-2431.200
ITAMSAT 1 29 Nov 12:04:15 12:07:05 15° 61° (ENE) 12:09:55 435.822/435.867
SO-50 29 Nov 12:05:53 12:10:37 50° 243° (WSW) 12:15:20 436.795
M-CUBED/EXP-1 PRIME 29 Nov 12:14:08 12:15:58 12° 93° (E) 12:17:45 437.505
TISAT 1 29 Nov 12:26:02 12:30:15 73° 285° (WNW) 12:34:25 437.305
BEESAT 29 Nov 12:26:36 12:29:29 16° 92° (E) 12:32:21 436.000
YUBILEINY 29 Nov 12:35:35 12:43:55 47° 75° (ENE) 12:52:10 435.215
Oscar 19 29 Nov 12:39:06 12:44:11 78° 75° (ENE) 12:49:19 437.125/150
SPROUT 29 Nov 12:48:06 12:52:13 46° 287° (WNW) 12:56:17 437.525
CUSAT 1 29 Nov 12:55:18 12:57:33 25° 284° (WNW) 12:59:50 437.405
Gurwin Techsat 1B 29 Nov 12:57:05 13:01:27 27° 66° (ENE) 13:05:48 435.225
ITUPSAT 1 29 Nov 13:23:16 13:28:02 60° 101° (E) 13:32:45 437.325
KKS-1 29 Nov 13:28:14 13:30:21 13° 91° (E) 13:32:27 437.445
VERMONT LUNAR 29 Nov 13:31:48 13:35:22 64° 164° (SSE) 13:38:57 437.305
SWISSCUBE 29 Nov 13:32:37 13:37:27 83° 103° (ESE) 13:42:13 437.505
PHONESAT 2.4 29 Nov 13:36:45 13:40:22 54° 161° (SSE) 13:44:00 2401.200-2431.200
AUBIESAT-1 29 Nov 13:38:30 13:43:27 83° 108° (ESE) 13:48:09 437.475
ITAMSAT 1 29 Nov 13:40:45 13:45:57 72° 257° (WSW) 13:51:10 435.822/435.867
HORYU 2 29 Nov 13:43:49 13:47:35 28° 68° (ENE) 13:51:21 437.375
M-CUBED/EXP-1 PRIME 29 Nov 13:46:34 13:51:30 76° 290° (WNW) 13:56:15 437.505
BEESAT 29 Nov 14:02:58 14:07:38 52° 288° (WNW) 14:12:15 436.000
AO-7 29 Nov 14:08:13 14:15:27 35° 59° (ENE) 14:22:43 29.400- 29.500
STARS 29 Nov 14:14:19 14:18:08 28° 97° (E) 14:21:56 437.465
Oscar 19 29 Nov 14:22:30 14:24:05 11° 271° (W) 14:25:42 437.125/150
MaSat-1 29 Nov 14:26:04 14:28:48 38° 297° (WNW) 14:31:18 437.345
YUBILEINY 29 Nov 14:32:47 14:40:27 37° 275° (W) 14:48:05 435.215
RS-15 29 Nov 14:35:40 14:45:52 47° 110° (ESE) 14:56:00 29.354- 29.394
Gurwin Techsat 1B 29 Nov 14:36:17 14:41:12 38° 262° (W) 14:46:09 435.225
O/OREOS (USA 219) 29 Nov 14:44:27 14:48:52 58° 66° (ENE) 14:53:18 437.305
ITUPSAT 1 29 Nov 15:02:41 15:05:24 15° 298° (WNW) 15:08:07 437.325
KKS-1 29 Nov 15:02:58 15:07:19 54° 287° (WNW) 15:11:38 437.445
